Powrót do katalogu

ATLAS 5 CENTAUR DEB

LostHEO
NORAD 52039·DEBRIS·🇺🇸 United States

Wystrzelony Oct 17, 2018 z Cape Canaveral Space Force Station

Loading…

Następne Przeloty (najbliższe 24 godziny)

TLE

NieaktualneSource: Space-Track

Epoka: Mar 26, 2023, 11:31 UTC

1 52039U 18079GH  23085.48042778 -.00000129  00000-0  00000+0 0  9994
2 52039  12.6090  81.3562 4550855 237.6264  70.2418  2.17886006  8554

Śledź ATLAS 5 CENTAUR DEB w czasie rzeczywistym z AllMySat

Download on the App Store